Year,Month,Day,Hour,Minute,Value (Times are PST for temperature in C)
2009,05,27,00,00,9.10
2009,05,27,00,01,9.10
2009,05,27,00,02,9.10
2009,05,27,00,03,9.10
2009,05,27,00,04,9.10
2009,05,27,00,05,9.10
2009,05,27,00,06,9.10
2009,05,27,00,07,9.10
2009,05,27,00,08,9.10
2009,05,27,00,09,9.00
2009,05,27,00,10,9.00
2009,05,27,00,11,9.00
2009,05,27,00,12,9.00
2009,05,27,00,13,9.00
2009,05,27,00,14,9.00
2009,05,27,00,15,9.00
2009,05,27,00,16,9.00
2009,05,27,00,17,9.00
2009,05,27,00,18,8.90
2009,05,27,00,19,8.90
2009,05,27,00,20,8.90
2009,05,27,00,21,8.90
2009,05,27,00,22,8.80
2009,05,27,00,23,8.80
2009,05,27,00,24,8.80
2009,05,27,00,25,8.80
2009,05,27,00,26,8.80
2009,05,27,00,27,8.80
2009,05,27,00,28,8.80
2009,05,27,00,29,8.90
2009,05,27,00,30,8.90
2009,05,27,00,31,8.90
2009,05,27,00,32,8.90
2009,05,27,00,33,8.90
2009,05,27,00,34,8.90
2009,05,27,00,35,8.90
2009,05,27,00,36,8.90
2009,05,27,00,37,8.90
2009,05,27,00,38,8.90
2009,05,27,00,39,8.90
2009,05,27,00,40,9.00
2009,05,27,00,41,9.00
2009,05,27,00,42,9.00
2009,05,27,00,43,9.00
2009,05,27,00,44,9.10
2009,05,27,00,45,9.10
2009,05,27,00,46,9.10
2009,05,27,00,47,9.10
2009,05,27,00,48,9.10
2009,05,27,00,49,9.10
2009,05,27,00,50,9.10
2009,05,27,00,51,9.10
2009,05,27,00,52,9.00
2009,05,27,00,53,9.00
2009,05,27,00,54,9.00
2009,05,27,00,55,8.90
2009,05,27,00,56,8.90
2009,05,27,00,57,8.90
2009,05,27,00,58,8.90
2009,05,27,00,59,8.90
2009,05,27,01,00,8.90
2009,05,27,01,01,8.90
2009,05,27,01,02,8.90
2009,05,27,01,03,8.90
2009,05,27,01,04,8.80
2009,05,27,01,05,8.80
2009,05,27,01,06,8.90
2009,05,27,01,07,8.90
2009,05,27,01,08,8.90
2009,05,27,01,09,8.90
2009,05,27,01,10,8.90
2009,05,27,01,11,8.90
2009,05,27,01,12,8.80
2009,05,27,01,13,8.80
2009,05,27,01,14,8.80
2009,05,27,01,15,8.80
2009,05,27,01,16,8.80
2009,05,27,01,17,8.80
2009,05,27,01,18,8.80
2009,05,27,01,19,8.80
2009,05,27,01,20,8.80
2009,05,27,01,21,8.70
2009,05,27,01,22,8.70
2009,05,27,01,23,8.70
2009,05,27,01,24,8.70
2009,05,27,01,25,8.60
2009,05,27,01,26,8.60
2009,05,27,01,27,8.50
2009,05,27,01,28,8.40
2009,05,27,01,29,8.30
2009,05,27,01,30,8.30
2009,05,27,01,31,8.20
2009,05,27,01,32,8.10
2009,05,27,01,33,8.10
2009,05,27,01,34,8.00
2009,05,27,01,35,8.00
2009,05,27,01,36,7.90
2009,05,27,01,37,7.90
2009,05,27,01,38,7.90
2009,05,27,01,39,7.90
2009,05,27,01,40,7.90
2009,05,27,01,41,7.90
2009,05,27,01,42,7.90
2009,05,27,01,43,7.90
2009,05,27,01,44,7.90
2009,05,27,01,45,7.90
2009,05,27,01,46,7.90
2009,05,27,01,47,7.90
2009,05,27,01,48,7.80
2009,05,27,01,49,7.80
2009,05,27,01,50,7.80
2009,05,27,01,51,7.80
2009,05,27,01,52,7.80
2009,05,27,01,53,7.80
2009,05,27,01,54,7.80
2009,05,27,01,55,7.80
2009,05,27,01,56,7.80
2009,05,27,01,57,7.80
2009,05,27,01,58,7.80
2009,05,27,01,59,7.70
2009,05,27,02,00,7.70
2009,05,27,02,01,7.70
2009,05,27,02,02,7.70
2009,05,27,02,03,7.70
2009,05,27,02,04,7.70
2009,05,27,02,05,7.70
2009,05,27,02,06,7.70
2009,05,27,02,07,7.60
2009,05,27,02,08,7.60
2009,05,27,02,09,7.60
2009,05,27,02,10,7.60
2009,05,27,02,11,7.60
2009,05,27,02,12,7.60
2009,05,27,02,13,7.60
2009,05,27,02,14,7.50
2009,05,27,02,15,7.50
2009,05,27,02,16,7.50
2009,05,27,02,17,7.50
2009,05,27,02,18,7.40
2009,05,27,02,19,7.40
2009,05,27,02,20,7.40
2009,05,27,02,21,7.40
2009,05,27,02,22,7.40
2009,05,27,02,23,7.40
2009,05,27,02,24,7.40
2009,05,27,02,25,7.40
2009,05,27,02,26,7.40
2009,05,27,02,27,7.40
2009,05,27,02,28,7.40
2009,05,27,02,29,7.40
2009,05,27,02,30,7.40
2009,05,27,02,31,7.40
2009,05,27,02,32,7.40
2009,05,27,02,33,7.40
2009,05,27,02,34,7.40
2009,05,27,02,35,7.40
2009,05,27,02,36,7.40
2009,05,27,02,37,7.40
2009,05,27,02,38,7.40
2009,05,27,02,39,7.40
2009,05,27,02,40,7.40
2009,05,27,02,41,7.40
2009,05,27,02,42,7.40
2009,05,27,02,43,7.40
2009,05,27,02,44,7.40
2009,05,27,02,45,7.40
2009,05,27,02,46,7.40
2009,05,27,02,47,7.40
2009,05,27,02,48,7.40
2009,05,27,02,49,7.40
2009,05,27,02,50,7.40
2009,05,27,02,51,7.40
2009,05,27,02,52,7.40
2009,05,27,02,53,7.30
2009,05,27,02,54,7.30
2009,05,27,02,55,7.30
2009,05,27,02,56,7.30
2009,05,27,02,57,7.30
2009,05,27,02,58,7.20
2009,05,27,02,59,7.20
2009,05,27,03,00,7.20
2009,05,27,03,01,7.20
2009,05,27,03,02,7.20
2009,05,27,03,03,7.20
2009,05,27,03,04,7.20
2009,05,27,03,05,7.20
2009,05,27,03,06,7.20
2009,05,27,03,07,7.20
2009,05,27,03,08,7.20
2009,05,27,03,09,7.20
2009,05,27,03,10,7.20
2009,05,27,03,11,7.20
2009,05,27,03,12,7.20
2009,05,27,03,13,7.20
2009,05,27,03,14,7.20
2009,05,27,03,15,7.20
2009,05,27,03,16,7.20
2009,05,27,03,17,7.20
2009,05,27,03,18,7.10
2009,05,27,03,19,7.10
2009,05,27,03,20,7.10
2009,05,27,03,21,7.10
2009,05,27,03,22,7.10
2009,05,27,03,23,7.00
2009,05,27,03,24,7.00
2009,05,27,03,25,7.00
2009,05,27,03,26,7.00
2009,05,27,03,27,7.00
2009,05,27,03,28,6.90
2009,05,27,03,29,6.90
2009,05,27,03,30,6.90
2009,05,27,03,31,6.90
2009,05,27,03,32,6.90
2009,05,27,03,33,6.80
2009,05,27,03,34,6.80
2009,05,27,03,35,6.80
2009,05,27,03,36,6.80
2009,05,27,03,37,6.80
2009,05,27,03,38,6.80
2009,05,27,03,39,6.80
2009,05,27,03,40,6.80
2009,05,27,03,41,6.80
2009,05,27,03,42,6.80
2009,05,27,03,43,6.80
2009,05,27,03,44,6.80
2009,05,27,03,45,6.80
2009,05,27,03,46,6.80
2009,05,27,03,47,6.80
2009,05,27,03,48,6.70
2009,05,27,03,49,6.70
2009,05,27,03,50,6.70
2009,05,27,03,51,6.70
2009,05,27,03,52,6.70
2009,05,27,03,53,6.70
2009,05,27,03,54,6.70
2009,05,27,03,55,6.70
2009,05,27,03,56,6.70
2009,05,27,03,57,6.70
2009,05,27,03,58,6.70
2009,05,27,03,59,6.70
2009,05,27,04,00,6.70
2009,05,27,04,01,6.70
2009,05,27,04,02,6.70
2009,05,27,04,03,6.70
2009,05,27,04,04,6.70
2009,05,27,04,05,6.70
2009,05,27,04,06,6.60
2009,05,27,04,07,6.60
2009,05,27,04,08,6.60
2009,05,27,04,09,6.60
2009,05,27,04,10,6.60
2009,05,27,04,11,6.60
2009,05,27,04,12,6.60
2009,05,27,04,13,6.60
2009,05,27,04,14,6.60
2009,05,27,04,15,6.60
2009,05,27,04,16,6.60
2009,05,27,04,17,6.60
2009,05,27,04,18,6.60
2009,05,27,04,19,6.60
2009,05,27,04,20,6.60
2009,05,27,04,21,6.60
2009,05,27,04,22,6.60
2009,05,27,04,23,6.60
2009,05,27,04,24,6.60
2009,05,27,04,25,6.60
2009,05,27,04,26,6.60
2009,05,27,04,27,6.60
2009,05,27,04,28,6.60
2009,05,27,04,29,6.50
2009,05,27,04,30,6.50
2009,05,27,04,31,6.50
2009,05,27,04,32,6.50
2009,05,27,04,33,6.60
2009,05,27,04,34,6.60
2009,05,27,04,35,6.60
2009,05,27,04,36,6.60
2009,05,27,04,37,6.60
2009,05,27,04,38,6.60
2009,05,27,04,39,6.60
2009,05,27,04,40,6.70
2009,05,27,04,41,6.70
2009,05,27,04,42,6.70
2009,05,27,04,43,6.70
2009,05,27,04,44,6.70
2009,05,27,04,45,6.70
2009,05,27,04,46,6.70
2009,05,27,04,47,6.70
2009,05,27,04,48,6.60
2009,05,27,04,49,6.60
2009,05,27,04,50,6.60
2009,05,27,04,51,6.60
2009,05,27,04,52,6.60
2009,05,27,04,53,6.60
2009,05,27,04,54,6.60
2009,05,27,04,55,6.60
2009,05,27,04,56,6.60
2009,05,27,04,57,6.60
2009,05,27,04,58,6.60
2009,05,27,04,59,6.50
2009,05,27,05,00,6.50
2009,05,27,05,01,6.50
2009,05,27,05,02,6.50
2009,05,27,05,03,6.50
2009,05,27,05,04,6.50
2009,05,27,05,05,6.50
2009,05,27,05,06,6.40
2009,05,27,05,07,6.40
2009,05,27,05,08,6.40
2009,05,27,05,09,6.40
2009,05,27,05,10,6.40
2009,05,27,05,11,6.40
2009,05,27,05,12,6.40
2009,05,27,05,13,6.40
2009,05,27,05,14,6.40
2009,05,27,05,15,6.40
2009,05,27,05,16,6.40
2009,05,27,05,17,6.40
2009,05,27,05,18,6.40
2009,05,27,05,19,6.40
2009,05,27,05,20,6.40
2009,05,27,05,21,6.40
2009,05,27,05,22,6.40
2009,05,27,05,23,6.40
2009,05,27,05,24,6.40
2009,05,27,05,25,6.40
2009,05,27,05,26,6.40
2009,05,27,05,27,6.40
2009,05,27,05,28,6.40
2009,05,27,05,29,6.30
2009,05,27,05,30,6.30
2009,05,27,05,31,6.30
2009,05,27,05,32,6.30
2009,05,27,05,33,6.30
2009,05,27,05,34,6.30
2009,05,27,05,35,6.30
2009,05,27,05,36,6.30
2009,05,27,05,37,6.30
2009,05,27,05,38,6.30
2009,05,27,05,39,6.30
2009,05,27,05,40,6.30
2009,05,27,05,41,6.30
2009,05,27,05,42,6.30
2009,05,27,05,43,6.30
2009,05,27,05,44,6.30
2009,05,27,05,45,6.20
2009,05,27,05,46,6.20
2009,05,27,05,47,6.20
2009,05,27,05,48,6.20
2009,05,27,05,49,6.20
2009,05,27,05,50,6.20
2009,05,27,05,51,6.20
2009,05,27,05,52,6.20
2009,05,27,05,53,6.20
2009,05,27,05,54,6.20
2009,05,27,05,55,6.20
2009,05,27,05,56,6.10
2009,05,27,05,57,6.20
2009,05,27,05,58,6.20
2009,05,27,05,59,6.20
2009,05,27,06,00,6.20
2009,05,27,06,01,6.20
2009,05,27,06,02,6.20
2009,05,27,06,03,6.20
2009,05,27,06,04,6.20
2009,05,27,06,05,6.20
2009,05,27,06,06,6.20
2009,05,27,06,07,6.20
2009,05,27,06,08,6.20
2009,05,27,06,09,6.10
2009,05,27,06,10,6.10
2009,05,27,06,11,6.10
2009,05,27,06,12,6.10
2009,05,27,06,13,6.10
2009,05,27,06,14,6.10
2009,05,27,06,15,6.10
2009,05,27,06,16,6.10
2009,05,27,06,17,6.10
2009,05,27,06,18,6.10
2009,05,27,06,19,6.10
2009,05,27,06,20,6.10
2009,05,27,06,21,6.10
2009,05,27,06,22,6.20
2009,05,27,06,23,6.10
2009,05,27,06,24,6.10
2009,05,27,06,25,6.10
2009,05,27,06,26,6.10
2009,05,27,06,27,6.10
2009,05,27,06,28,6.20
2009,05,27,06,29,6.20
2009,05,27,06,30,6.20
2009,05,27,06,31,6.20
2009,05,27,06,32,6.20
2009,05,27,06,33,6.20
2009,05,27,06,34,6.20
2009,05,27,06,35,6.30
2009,05,27,06,36,6.30
2009,05,27,06,37,6.30
2009,05,27,06,38,6.30
2009,05,27,06,39,6.40
2009,05,27,06,40,6.40
2009,05,27,06,41,6.40
2009,05,27,06,42,6.50
2009,05,27,06,43,6.50
2009,05,27,06,44,6.50
2009,05,27,06,45,6.50
2009,05,27,06,46,6.60
2009,05,27,06,47,6.60
2009,05,27,06,48,6.60
2009,05,27,06,49,6.60
2009,05,27,06,50,6.60
2009,05,27,06,51,6.60
2009,05,27,06,52,6.60
2009,05,27,06,53,6.60
2009,05,27,06,54,6.60
2009,05,27,06,55,6.60
2009,05,27,06,56,6.70
2009,05,27,06,57,6.70
2009,05,27,06,58,6.80
2009,05,27,06,59,6.80
2009,05,27,07,00,6.80
2009,05,27,07,01,6.80
2009,05,27,07,02,6.90
2009,05,27,07,03,6.90
2009,05,27,07,04,7.00
2009,05,27,07,05,7.00
2009,05,27,07,06,7.10
2009,05,27,07,07,7.10
2009,05,27,07,08,7.10
2009,05,27,07,09,7.20
2009,05,27,07,10,7.20
2009,05,27,07,11,7.20
2009,05,27,07,12,7.20
2009,05,27,07,13,7.30
2009,05,27,07,14,7.30
2009,05,27,07,15,7.30
2009,05,27,07,16,7.40
2009,05,27,07,17,7.40
2009,05,27,07,18,7.40
2009,05,27,07,19,7.50
2009,05,27,07,20,7.50
2009,05,27,07,21,7.60
2009,05,27,07,22,7.60
2009,05,27,07,23,7.60
2009,05,27,07,24,7.70
2009,05,27,07,25,7.70
2009,05,27,07,26,7.70
2009,05,27,07,27,7.70
2009,05,27,07,28,7.70
2009,05,27,07,29,7.70
2009,05,27,07,30,7.80
2009,05,27,07,31,7.80
2009,05,27,07,32,7.80
2009,05,27,07,33,7.80
2009,05,27,07,34,7.80
2009,05,27,07,35,7.80
2009,05,27,07,36,7.90
2009,05,27,07,37,7.90
2009,05,27,07,38,7.90
2009,05,27,07,39,7.90
2009,05,27,07,40,8.00
2009,05,27,07,41,8.00
2009,05,27,07,42,8.10
2009,05,27,07,43,8.10
2009,05,27,07,44,8.10
2009,05,27,07,45,8.10
2009,05,27,07,46,8.10
2009,05,27,07,47,8.10
2009,05,27,07,48,8.20
2009,05,27,07,49,8.20
2009,05,27,07,50,8.20
2009,05,27,07,51,8.20
2009,05,27,07,52,8.30
2009,05,27,07,53,8.30
2009,05,27,07,54,8.30
2009,05,27,07,55,8.30
2009,05,27,07,56,8.30
2009,05,27,07,57,8.40
2009,05,27,07,58,8.40
2009,05,27,07,59,8.50
2009,05,27,08,00,8.50
2009,05,27,08,01,8.60
2009,05,27,08,02,8.60
2009,05,27,08,03,8.60
2009,05,27,08,04,8.60
2009,05,27,08,05,8.70
2009,05,27,08,06,8.70
2009,05,27,08,07,8.70
2009,05,27,08,08,8.70
2009,05,27,08,09,8.70
2009,05,27,08,10,8.70
2009,05,27,08,11,8.80
2009,05,27,08,12,8.80
2009,05,27,08,13,8.80
2009,05,27,08,14,8.90
2009,05,27,08,15,8.90
2009,05,27,08,16,8.90
2009,05,27,08,17,9.00
2009,05,27,08,18,9.00
2009,05,27,08,19,9.10
2009,05,27,08,20,9.10
2009,05,27,08,21,9.20
2009,05,27,08,22,9.20
2009,05,27,08,23,9.20
2009,05,27,08,24,9.30
2009,05,27,08,25,9.30
2009,05,27,08,26,9.30
2009,05,27,08,27,9.40
2009,05,27,08,28,9.40
2009,05,27,08,29,9.40
2009,05,27,08,30,9.50
2009,05,27,08,31,9.50
2009,05,27,08,32,9.60
2009,05,27,08,33,9.60
2009,05,27,08,34,9.60
2009,05,27,08,35,9.60
2009,05,27,08,36,9.60
2009,05,27,08,37,9.70
2009,05,27,08,38,9.70
2009,05,27,08,39,9.70
2009,05,27,08,40,9.80
2009,05,27,08,41,9.80
2009,05,27,08,42,9.90
2009,05,27,08,43,9.90
2009,05,27,08,44,10.00
2009,05,27,08,45,10.00
2009,05,27,08,46,10.10
2009,05,27,08,47,10.10
2009,05,27,08,48,10.10
2009,05,27,08,49,10.20
2009,05,27,08,50,10.20
2009,05,27,08,51,10.20
2009,05,27,08,52,10.20
2009,05,27,08,53,10.20
2009,05,27,08,54,10.30
2009,05,27,08,55,10.30
2009,05,27,08,56,10.30
2009,05,27,08,57,10.30
2009,05,27,08,58,10.30
2009,05,27,08,59,10.30
2009,05,27,09,00,10.30
2009,05,27,09,01,10.30
2009,05,27,09,02,10.40
2009,05,27,09,03,10.40
2009,05,27,09,04,10.40
2009,05,27,09,05,10.50
2009,05,27,09,06,10.50
2009,05,27,09,07,10.60
2009,05,27,09,08,10.60
2009,05,27,09,09,10.70
2009,05,27,09,10,10.80
2009,05,27,09,11,10.80
2009,05,27,09,12,10.90
2009,05,27,09,13,10.90
2009,05,27,09,14,11.00
2009,05,27,09,15,11.10
2009,05,27,09,16,11.20
2009,05,27,09,17,11.30
2009,05,27,09,18,11.40
2009,05,27,09,19,11.40
2009,05,27,09,20,11.50
2009,05,27,09,21,11.60
2009,05,27,09,22,11.60
2009,05,27,09,23,11.70
2009,05,27,09,24,11.70
2009,05,27,09,25,11.70
2009,05,27,09,26,11.70
2009,05,27,09,27,11.80
2009,05,27,09,28,11.80
2009,05,27,09,29,11.90
2009,05,27,09,30,12.00
2009,05,27,09,31,12.10
2009,05,27,09,32,12.20
2009,05,27,09,33,12.20
2009,05,27,09,34,12.30
2009,05,27,09,35,12.30
2009,05,27,09,36,12.30
2009,05,27,09,37,12.40
2009,05,27,09,38,12.40
2009,05,27,09,39,12.50
2009,05,27,09,40,12.60
2009,05,27,09,41,12.60
2009,05,27,09,42,12.60
2009,05,27,09,43,12.70
2009,05,27,09,44,12.80
2009,05,27,09,45,13.00
2009,05,27,09,46,13.10
2009,05,27,09,47,13.30
2009,05,27,09,48,13.30
2009,05,27,09,49,13.40
2009,05,27,09,50,13.50
2009,05,27,09,51,13.70
2009,05,27,09,52,13.80
2009,05,27,09,53,13.90
2009,05,27,09,54,14.00
2009,05,27,09,55,14.10
2009,05,27,09,56,14.10
2009,05,27,09,57,14.20
2009,05,27,09,58,14.20
2009,05,27,09,59,14.20
2009,05,27,10,00,14.30
2009,05,27,10,01,14.30
2009,05,27,10,02,14.30
2009,05,27,10,03,14.30
2009,05,27,10,04,14.30
2009,05,27,10,05,14.20
2009,05,27,10,06,14.20
2009,05,27,10,07,14.20
2009,05,27,10,08,14.20
2009,05,27,10,09,14.20
2009,05,27,10,10,14.10
2009,05,27,10,11,14.10
2009,05,27,10,12,14.10
2009,05,27,10,13,14.10
2009,05,27,10,14,14.20
2009,05,27,10,15,14.20
2009,05,27,10,16,14.30
2009,05,27,10,17,14.20
2009,05,27,10,18,14.10
2009,05,27,10,19,13.90
2009,05,27,10,20,13.80
2009,05,27,10,21,13.70
2009,05,27,10,22,13.80
2009,05,27,10,23,13.80
2009,05,27,10,24,13.90
2009,05,27,10,25,14.00
2009,05,27,10,26,14.10
2009,05,27,10,27,14.10
2009,05,27,10,28,14.20
2009,05,27,10,29,14.30
2009,05,27,10,30,14.40
2009,05,27,10,31,14.40
2009,05,27,10,32,14.40
2009,05,27,10,33,14.40
2009,05,27,10,34,14.40
2009,05,27,10,35,14.40
2009,05,27,10,36,14.40
2009,05,27,10,37,14.40
2009,05,27,10,38,14.50
2009,05,27,10,39,14.50
2009,05,27,10,40,14.50
2009,05,27,10,41,14.50
2009,05,27,10,42,14.50
2009,05,27,10,43,14.60
2009,05,27,10,44,14.70
2009,05,27,10,45,14.70
2009,05,27,10,46,14.80
2009,05,27,10,47,14.90
2009,05,27,10,48,15.00
2009,05,27,10,49,15.00
2009,05,27,10,50,15.00
2009,05,27,10,51,15.00
2009,05,27,10,52,15.00
2009,05,27,10,53,15.00
2009,05,27,10,54,15.00
2009,05,27,10,55,15.00
2009,05,27,10,56,15.00
2009,05,27,10,57,15.00
2009,05,27,10,58,15.00
2009,05,27,10,59,15.00
2009,05,27,11,00,15.00
2009,05,27,11,01,15.20
2009,05,27,11,02,15.30
2009,05,27,11,03,15.30
2009,05,27,11,04,15.40
2009,05,27,11,05,15.40
2009,05,27,11,06,15.50
2009,05,27,11,07,15.60
2009,05,27,11,08,15.60
2009,05,27,11,09,15.60
2009,05,27,11,10,15.60
2009,05,27,11,11,15.60
2009,05,27,11,12,15.60
2009,05,27,11,13,15.60
2009,05,27,11,14,15.60
2009,05,27,11,15,15.70
2009,05,27,11,16,15.70
2009,05,27,11,17,15.70
2009,05,27,11,18,15.70
2009,05,27,11,19,15.70
2009,05,27,11,20,15.70
2009,05,27,11,21,15.80
2009,05,27,11,22,15.80
2009,05,27,11,23,15.80
2009,05,27,11,24,15.80
2009,05,27,11,25,15.80
2009,05,27,11,26,15.90
2009,05,27,11,27,15.90
2009,05,27,11,28,15.90
2009,05,27,11,29,15.90
2009,05,27,11,30,15.90
2009,05,27,11,31,15.90
2009,05,27,11,32,15.90
2009,05,27,11,33,15.90
2009,05,27,11,34,15.90
2009,05,27,11,35,15.90
2009,05,27,11,36,15.90
2009,05,27,11,37,15.80
2009,05,27,11,38,15.80
2009,05,27,11,39,15.70
2009,05,27,11,40,15.70
2009,05,27,11,41,15.70
2009,05,27,11,42,15.70
2009,05,27,11,43,15.70
2009,05,27,11,44,15.80
2009,05,27,11,45,15.80
2009,05,27,11,46,15.90
2009,05,27,11,47,15.90
2009,05,27,11,48,16.00
2009,05,27,11,49,16.00
2009,05,27,11,50,16.00
2009,05,27,11,51,15.90
2009,05,27,11,52,15.90
2009,05,27,11,53,15.90
2009,05,27,11,54,15.90
2009,05,27,11,55,15.90
2009,05,27,11,56,15.80
2009,05,27,11,57,15.70
2009,05,27,11,58,15.60
2009,05,27,11,59,15.50
2009,05,27,12,00,15.50
2009,05,27,12,01,15.60
2009,05,27,12,02,15.60
2009,05,27,12,03,15.60
2009,05,27,12,04,15.60
2009,05,27,12,05,15.70
2009,05,27,12,06,15.80
2009,05,27,12,07,15.80
2009,05,27,12,08,15.80
2009,05,27,12,09,15.90
2009,05,27,12,10,15.90
2009,05,27,12,11,15.90
2009,05,27,12,12,15.90
2009,05,27,12,13,15.90
2009,05,27,12,14,15.90
2009,05,27,12,15,15.90
2009,05,27,12,16,15.90
2009,05,27,12,17,15.90
2009,05,27,12,18,16.00
2009,05,27,12,19,16.10
2009,05,27,12,20,16.10
2009,05,27,12,21,16.10
2009,05,27,12,22,16.00
2009,05,27,12,23,15.90
2009,05,27,12,24,15.80
2009,05,27,12,25,15.70
2009,05,27,12,26,15.70
2009,05,27,12,27,15.60
2009,05,27,12,28,15.70
2009,05,27,12,29,15.80
2009,05,27,12,30,15.80
2009,05,27,12,31,15.90
2009,05,27,12,32,16.00
2009,05,27,12,33,16.10
2009,05,27,12,34,16.20
2009,05,27,12,35,16.20
2009,05,27,12,36,16.20
2009,05,27,12,37,16.30
2009,05,27,12,38,16.30
2009,05,27,12,39,16.30
2009,05,27,12,40,16.40
2009,05,27,12,41,16.40
2009,05,27,12,42,16.40
2009,05,27,12,43,16.40
2009,05,27,12,44,16.50
2009,05,27,12,45,16.50
2009,05,27,12,46,16.60
2009,05,27,12,47,16.60
2009,05,27,12,48,16.50
2009,05,27,12,49,16.60
2009,05,27,12,50,16.50
2009,05,27,12,51,16.40
2009,05,27,12,52,16.40
2009,05,27,12,53,16.40
2009,05,27,12,54,16.40
2009,05,27,12,55,16.50
2009,05,27,12,56,16.50
2009,05,27,12,57,16.40
2009,05,27,12,58,16.50
2009,05,27,12,59,16.60
2009,05,27,13,00,16.70
2009,05,27,13,01,16.70
2009,05,27,13,02,16.70
2009,05,27,13,03,16.80
2009,05,27,13,04,16.90
2009,05,27,13,05,16.80
2009,05,27,13,06,16.70
2009,05,27,13,07,16.60
2009,05,27,13,08,16.40
2009,05,27,13,09,16.40
2009,05,27,13,10,16.40
2009,05,27,13,11,16.40
2009,05,27,13,12,16.40
2009,05,27,13,13,16.40
2009,05,27,13,14,16.40
2009,05,27,13,15,16.40
2009,05,27,13,16,16.40
2009,05,27,13,17,16.40
2009,05,27,13,18,16.20
2009,05,27,13,19,16.10
2009,05,27,13,20,16.10
2009,05,27,13,21,16.10
2009,05,27,13,22,16.10
2009,05,27,13,23,16.20
2009,05,27,13,24,16.30
2009,05,27,13,25,16.40
2009,05,27,13,26,16.40
2009,05,27,13,27,16.40
2009,05,27,13,28,16.40
2009,05,27,13,29,16.40
2009,05,27,13,30,16.40
2009,05,27,13,31,16.40
2009,05,27,13,32,16.40
2009,05,27,13,33,16.40
2009,05,27,13,34,16.40
2009,05,27,13,35,16.30
2009,05,27,13,36,16.30
2009,05,27,13,37,16.30
2009,05,27,13,38,16.40
2009,05,27,13,39,16.40
2009,05,27,13,40,16.40
2009,05,27,13,41,16.40
2009,05,27,13,42,16.30
2009,05,27,13,43,16.30
2009,05,27,13,44,16.30
2009,05,27,13,45,16.30
2009,05,27,13,46,16.20
2009,05,27,13,47,16.20
2009,05,27,13,48,16.20
2009,05,27,13,49,16.30
2009,05,27,13,50,16.30
2009,05,27,13,51,16.40
2009,05,27,13,52,16.50
2009,05,27,13,53,16.60
2009,05,27,13,54,16.60
2009,05,27,13,55,16.60
2009,05,27,13,56,16.70
2009,05,27,13,57,16.80
2009,05,27,13,58,16.90
2009,05,27,13,59,17.00
2009,05,27,14,00,17.10
2009,05,27,14,01,17.20
2009,05,27,14,02,17.20
2009,05,27,14,03,17.20
2009,05,27,14,04,17.20
2009,05,27,14,05,17.10
2009,05,27,14,06,17.10
2009,05,27,14,07,17.10
2009,05,27,14,08,17.20
2009,05,27,14,09,17.20
2009,05,27,14,10,17.30
2009,05,27,14,11,17.30
2009,05,27,14,12,17.40
2009,05,27,14,13,17.50
2009,05,27,14,14,17.60
2009,05,27,14,15,17.70
2009,05,27,14,16,17.80
2009,05,27,14,17,17.90
2009,05,27,14,18,18.00
2009,05,27,14,19,18.00
2009,05,27,14,20,18.10
2009,05,27,14,21,18.10
2009,05,27,14,22,18.10
2009,05,27,14,23,18.20
2009,05,27,14,24,18.10
2009,05,27,14,25,18.10
2009,05,27,14,26,18.00
2009,05,27,14,27,18.00
2009,05,27,14,28,18.00
2009,05,27,14,29,18.00
2009,05,27,14,30,18.00
2009,05,27,14,31,18.00
2009,05,27,14,32,17.90
2009,05,27,14,33,17.70
2009,05,27,14,34,17.60
2009,05,27,14,35,17.60
2009,05,27,14,36,17.60
2009,05,27,14,37,17.70
2009,05,27,14,38,17.70
2009,05,27,14,39,17.70
2009,05,27,14,40,17.80
2009,05,27,14,41,17.80
2009,05,27,14,42,17.80
2009,05,27,14,43,17.80
2009,05,27,14,44,17.80
2009,05,27,14,45,17.70
2009,05,27,14,46,17.60
2009,05,27,14,47,17.60
2009,05,27,14,48,17.60
2009,05,27,14,49,17.60
2009,05,27,14,50,17.50
2009,05,27,14,51,17.40
2009,05,27,14,52,17.40
2009,05,27,14,53,17.40
2009,05,27,14,54,17.50
2009,05,27,14,55,17.60
2009,05,27,14,56,17.60
2009,05,27,14,57,17.60
2009,05,27,14,58,17.50
2009,05,27,14,59,17.40
2009,05,27,15,00,17.40
2009,05,27,15,01,17.40
2009,05,27,15,02,17.50
2009,05,27,15,03,17.60
2009,05,27,15,04,17.70
2009,05,27,15,05,17.80
2009,05,27,15,06,17.90
2009,05,27,15,07,17.90
2009,05,27,15,08,17.90
2009,05,27,15,09,17.80
2009,05,27,15,10,17.70
2009,05,27,15,11,17.60
2009,05,27,15,12,17.60
2009,05,27,15,13,17.70
2009,05,27,15,14,17.70
2009,05,27,15,15,17.80
2009,05,27,15,16,17.80
2009,05,27,15,17,17.90
2009,05,27,15,18,17.90
2009,05,27,15,19,18.00
2009,05,27,15,20,18.10
2009,05,27,15,21,18.10
2009,05,27,15,22,18.20
2009,05,27,15,23,18.20
2009,05,27,15,24,18.30
2009,05,27,15,25,18.30
2009,05,27,15,26,18.20
2009,05,27,15,27,18.10
2009,05,27,15,28,17.90
2009,05,27,15,29,17.80
2009,05,27,15,30,17.60
2009,05,27,15,31,17.60
2009,05,27,15,32,17.50
2009,05,27,15,33,17.40
2009,05,27,15,34,17.50
2009,05,27,15,35,17.40
2009,05,27,15,36,17.50
2009,05,27,15,37,17.50
2009,05,27,15,38,17.60
2009,05,27,15,39,17.70
2009,05,27,15,40,17.80
2009,05,27,15,41,17.90
2009,05,27,15,42,18.00
2009,05,27,15,43,18.00
2009,05,27,15,44,18.00
2009,05,27,15,45,18.00
2009,05,27,15,46,17.90
2009,05,27,15,47,17.90
2009,05,27,15,48,17.90
2009,05,27,15,49,17.90
2009,05,27,15,50,17.90
2009,05,27,15,51,17.90
2009,05,27,15,52,17.90
2009,05,27,15,53,18.00
2009,05,27,15,54,18.00
2009,05,27,15,55,18.00
2009,05,27,15,56,18.00
2009,05,27,15,57,18.10
2009,05,27,15,58,18.20
2009,05,27,15,59,18.20
2009,05,27,16,00,18.20
2009,05,27,16,01,18.20
2009,05,27,16,02,18.20
2009,05,27,16,03,18.30
2009,05,27,16,04,18.30
2009,05,27,16,05,18.40
2009,05,27,16,06,18.40
2009,05,27,16,07,18.50
2009,05,27,16,08,18.50
2009,05,27,16,09,18.40
2009,05,27,16,10,18.40
2009,05,27,16,11,18.40
2009,05,27,16,12,18.20
2009,05,27,16,13,18.10
2009,05,27,16,14,17.90
2009,05,27,16,15,17.80
2009,05,27,16,16,17.70
2009,05,27,16,17,17.60
2009,05,27,16,18,17.50
2009,05,27,16,19,17.50
2009,05,27,16,20,17.50
2009,05,27,16,21,17.60
2009,05,27,16,22,17.60
2009,05,27,16,23,17.70
2009,05,27,16,24,17.70
2009,05,27,16,25,17.70
2009,05,27,16,26,17.70
2009,05,27,16,27,17.70
2009,05,27,16,28,17.70
2009,05,27,16,29,18.10
2009,05,27,16,30,18.10
2009,05,27,16,31,18.20
2009,05,27,16,32,18.20
2009,05,27,16,33,18.20
2009,05,27,16,34,18.20
2009,05,27,16,35,18.30
2009,05,27,16,36,18.30
2009,05,27,16,37,18.20
2009,05,27,16,38,18.20
2009,05,27,16,39,18.20
2009,05,27,16,40,18.20
2009,05,27,16,41,18.20
2009,05,27,16,42,18.20
2009,05,27,16,43,18.30
2009,05,27,16,44,18.30
2009,05,27,16,45,18.40
2009,05,27,16,46,18.50
2009,05,27,16,47,18.60
2009,05,27,16,48,18.60
2009,05,27,16,49,18.70
2009,05,27,16,50,18.70
2009,05,27,16,51,18.80
2009,05,27,16,52,18.80
2009,05,27,16,53,18.90
2009,05,27,16,54,18.90
2009,05,27,16,55,18.90
2009,05,27,16,56,18.90
2009,05,27,16,57,18.90
2009,05,27,16,58,18.80
2009,05,27,16,59,18.80
2009,05,27,17,00,18.80
2009,05,27,17,01,18.80
2009,05,27,17,02,18.80
2009,05,27,17,03,18.80
2009,05,27,17,04,18.90
2009,05,27,17,05,18.80
2009,05,27,17,06,18.80
2009,05,27,17,07,18.80
2009,05,27,17,08,18.80
2009,05,27,17,09,18.80
2009,05,27,17,10,18.70
2009,05,27,17,11,18.60
2009,05,27,17,12,18.60
2009,05,27,17,13,18.60
2009,05,27,17,14,18.60
2009,05,27,17,15,18.60
2009,05,27,17,16,18.70
2009,05,27,17,17,18.70
2009,05,27,17,18,18.70
2009,05,27,17,19,18.70
2009,05,27,17,20,18.70
2009,05,27,17,21,18.60
2009,05,27,17,22,18.60
2009,05,27,17,23,18.60
2009,05,27,17,24,18.60
2009,05,27,17,25,18.50
2009,05,27,17,26,18.50
2009,05,27,17,27,18.60
2009,05,27,17,28,18.60
2009,05,27,17,29,18.60
2009,05,27,17,30,18.50
2009,05,27,17,31,18.60
2009,05,27,17,32,18.60
2009,05,27,17,33,18.50
2009,05,27,17,34,18.50
2009,05,27,17,35,18.50
2009,05,27,17,36,18.40
2009,05,27,17,37,18.40
2009,05,27,17,38,18.30
2009,05,27,17,39,18.30
2009,05,27,17,40,18.30
2009,05,27,17,41,18.30
2009,05,27,17,42,18.30